AMC-18

Last updated on Nov. 17, 2019, 4:19 a.m. UTC

1 29644U 06054B   19320.03548791  .00000115  00000-0  00000+0 0  9998
2 29644   0.0155 296.2195 0000775 253.2897  99.1197  1.00273147 47436
UTC
Height (km)
Latitude
Longitude
Inclination
Orbital Period
UTC large
Height (km)
Speed (km/s)
/
Latitude / Longitude
Inclination (degrees)
Orbital Period (minutes)
Azimuth
Elevation
Range (km)
Doppler Factor
iOS Compass Heading
iOS Angle

Next 30 passes for location: Hong Kong

Rise time Rise Azimuth (degrees) Set time Set Azimuth (degrees) Duration Max altitude (degrees)

No matching passes for this satellites